| time (UTC) | temp C | wind direction | speed KPH | gust KPH | rain 1hr cm | rain 24hr cm | rain mn cm | humidity % | barometer mb |
| 20260508014547 | 18 | 187 | 11.3 | 19.3 | 0.00 | 0.00 | 0.00 | 10 | 1016.0 |
| 20260508014042 | 18 | 149 | 9.7 | 22.5 | 0.00 | 0.00 | 0.00 | 10 | 1015.9 |
| 20260508013540 | 19 | 183 | 8.0 | 22.5 | 0.00 | 0.00 | 0.00 | 10 | 1015.9 |
| 20260508013046 | 19 | 199 | 6.4 | 16.1 | 0.00 | 0.00 | 0.00 | 11 | 1015.8 |
| 20260508012542 | 20 | 202 | 8.0 | 20.9 | 0.00 | 0.00 | 0.00 | 11 | 1015.8 |
| 20260508012043 | 20 | 170 | 11.3 | 22.5 | 0.00 | 0.00 | 0.00 | 10 | 1015.8 |
| 20260508011550 | 20 | 174 | 9.7 | 22.5 | 0.00 | 0.00 | 0.00 | 10 | 1015.7 |
| 20260508011042 | 20 | 225 | 9.7 | 17.7 | 0.00 | 0.00 | 0.00 | 10 | 1015.7 |
| 20260508010542 | 20 | 225 | 8.0 | 19.3 | 0.00 | 0.00 | 0.00 | 11 | 1015.8 |
| 20260508010100 | 21 | 223 | 11.3 | 22.5 | 0.00 | 0.00 | 0.00 | 10 | 1015.8 |
| 20260508005541 | 21 | 246 | 11.3 | 22.5 | 0.00 | 0.00 | 0.00 | 10 | 1015.8 |
| 20260508005043 | 21 | 238 | 8.0 | 20.9 | 0.00 | 0.00 | 0.00 | 10 | 1015.8 |
| 20260508004547 | 22 | 205 | 6.4 | 20.9 | 0.00 | 0.00 | 0.00 | 10 | 1015.8 |
| 20260508004043 | 22 | 196 | 4.8 | 16.1 | 0.00 | 0.00 | 0.00 | 10 | 1015.8 |
| 20260508003542 | 22 | 245 | 6.4 | 19.3 | 0.00 | 0.00 | 0.00 | 10 | 1015.9 |
| 20260508003047 | 22 | 188 | 9.7 | 19.3 | 0.00 | 0.00 | 0.00 | 10 | 1015.9 |
| 20260508002542 | 22 | 202 | 8.0 | 19.3 | 0.00 | 0.00 | 0.00 | 10 | 1015.9 |
| 20260508002042 | 23 | 194 | 3.2 | 16.1 | 0.00 | 0.00 | 0.00 | 10 | 1015.9 |
| 20260508001551 | 23 | 171 | 6.4 | 16.1 | 0.00 | 0.00 | 0.00 | 10 | 1015.9 |
| 20260508001042 | 23 | 200 | 4.8 | 14.5 | 0.00 | 0.00 | 0.00 | 10 | 1016.0 |
| 20260508000542 | 23 | 219 | 4.8 | 17.7 | 0.00 | 0.00 | 0.00 | 10 | 1016.0 |
| 20260508000048 | 23 | 241 | 3.2 | 17.7 | 0.00 | 0.00 | 0.00 | 10 | 1016.0 |
| 20260507235542 | 23 | 211 | 8.0 | 17.7 | 0.00 | 0.00 | 0.00 | 10 | 1016.0 |
| 20260507235042 | 23 | 134 | 4.8 | 16.1 | 0.00 | 0.00 | 0.00 | 11 | 1016.0 |
| 20260507234548 | 23 | 188 | 6.4 | 16.1 | 0.00 | 0.00 | 0.00 | 11 | 1016.1 |
| 20260507234042 | 23 | 207 | 3.2 | 14.5 | 0.00 | 0.00 | 0.00 | 11 | 1016.3 |
| 20260507233543 | 23 | 228 | 6.4 | 17.7 | 0.00 | 0.00 | 0.00 | 12 | 1016.2 |
| 20260507233051 | 22 | 219 | 0.0 | 22.5 | 0.00 | 0.00 | 0.00 | 12 | 1016.2 |
| 20260507232543 | 22 | 242 | 11.3 | 22.5 | 0.00 | 0.00 | 0.00 | 12 | 1016.3 |
| 20260507232042 | 22 | 254 | 11.3 | 22.5 | 0.00 | 0.00 | 0.00 | 12 | 1016.2 |
| 20260507231551 | 23 | 188 | 12.9 | 22.5 | 0.00 | 0.00 | 0.00 | 13 | 1016.3 |
| 20260507231042 | 23 | 269 | 6.4 | 20.9 | 0.00 | 0.00 | 0.00 | 14 | 1016.2 |
| 20260507230542 | 23 | 234 | 8.0 | 20.9 | 0.00 | 0.00 | 0.00 | 15 | 1016.4 |
| 20260507230108 | 23 | 304 | 11.3 | 24.1 | 0.00 | 0.00 | 0.00 | 14 | 1016.4 |
| 20260507225542 | 23 | 221 | 12.9 | 24.1 | 0.00 | 0.00 | 0.00 | 14 | 1016.4 |
| 20260507225042 | 23 | 311 | 12.9 | 24.1 | 0.00 | 0.00 | 0.00 | 14 | 1016.4 |
| 20260507224549 | 23 | 331 | 11.3 | 17.7 | 0.00 | 0.00 | 0.00 | 15 | 1016.4 |
| 20260507224041 | 23 | 281 | 4.8 | 14.5 | 0.00 | 0.00 | 0.00 | 16 | 1016.4 |
| 20260507223542 | 23 | 248 | 8.0 | 14.5 | 0.00 | 0.00 | 0.00 | 17 | 1016.4 |
| 20260507223138 | 23 | 213 | 4.8 | 14.5 | 0.00 | 0.00 | 0.00 | 17 | 1016.4 |
| 20260507222542 | 23 | 331 | 3.2 | 14.5 | 0.00 | 0.00 | 0.00 | 18 | 1016.6 |
| 20260507222042 | 22 | 309 | 6.4 | 19.3 | 0.00 | 0.00 | 0.00 | 18 | 1016.7 |
| 20260507221550 | 23 | 335 | 8.0 | 29.0 | 0.00 | 0.00 | 0.00 | 18 | 1016.8 |
| 20260507221043 | 22 | 319 | 16.1 | 29.0 | 0.00 | 0.00 | 0.00 | 18 | 1016.8 |
| 20260507220542 | 23 | 304 | 6.4 | 22.5 | 0.00 | 0.00 | 0.00 | 17 | 1016.8 |
| 20260507220049 | 23 | 30 | 8.0 | 19.3 | 0.00 | 0.00 | 0.00 | 16 | 1017.0 |
| 20260507215542 | 23 | 314 | 6.4 | 19.3 | 0.00 | 0.00 | 0.00 | 16 | 1017.0 |
| 20260507215042 | 23 | 360 | 9.7 | 19.3 | 0.00 | 0.00 | 0.00 | 14 | 1017.1 |
| 20260507214554 | 23 | 323 | 6.4 | 20.9 | 0.00 | 0.00 | 0.00 | 15 | 1017.1 |
| 20260507214042 | 23 | 325 | 8.0 | 20.9 | 0.00 | 0.00 | 0.00 | 15 | 1017.2 |
| 20260507213542 | 23 | 309 | 11.3 | 19.3 | 0.00 | 0.00 | 0.00 | 14 | 1017.3 |
| 20260507213100 | 23 | 310 | 1.6 | 19.3 | 0.00 | 0.00 | 0.00 | 15 | 1017.5 |
| 20260507212542 | 23 | 284 | 4.8 | 19.3 | 0.00 | 0.00 | 0.00 | 14 | 1017.6 |
| 20260507212042 | 23 | 309 | 9.7 | 19.3 | 0.00 | 0.00 | 0.00 | 13 | 1017.6 |
| 20260507211552 | 23 | 239 | 6.4 | 19.3 | 0.00 | 0.00 | 0.00 | 14 | 1017.7 |
| 20260507211041 | 23 | 331 | 4.8 | 16.1 | 0.00 | 0.00 | 0.00 | 13 | 1017.8 |
| 20260507210543 | 23 | 296 | 3.2 | 17.7 | 0.00 | 0.00 | 0.00 | 11 | 1017.8 |
| 20260507210050 | 22 | 253 | 8.0 | 17.7 | 0.00 | 0.00 | 0.00 | 12 | 1018.0 |
| 20260507205543 | 22 | 302 | 6.4 | 16.1 | 0.00 | 0.00 | 0.00 | 12 | 1018.0 |
| 20260507205044 | 22 | 313 | 6.4 | 14.5 | 0.00 | 0.00 | 0.00 | 11 | 1018.1 |
| 20260507204548 | 23 | 26 | 3.2 | 17.7 | 0.00 | 0.00 | 0.00 | 10 | 1018.2 |
| 20260507204042 | 22 | 194 | 3.2 | 17.7 | 0.00 | 0.00 | 0.00 | 10 | 1018.3 |
| 20260507203542 | 21 | 317 | 1.6 | 12.9 | 0.00 | 0.00 | 0.00 | 10 | 1018.3 |
| 20260507203051 | 21 | 352 | 3.2 | 19.3 | 0.00 | 0.00 | 0.00 | 10 | 1018.4 |
| 20260507202542 | 21 | 290 | 8.0 | 19.3 | 0.00 | 0.00 | 0.00 | 10 | 1018.5 |
| 20260507202045 | 21 | 271 | 8.0 | 20.9 | 0.00 | 0.00 | 0.00 | 9 | 1018.5 |
| 20260507201554 | 20 | 289 | 11.3 | 20.9 | 0.00 | 0.00 | 0.00 | 9 | 1018.6 |
| 20260507201042 | 20 | 319 | 6.4 | 19.3 | 0.00 | 0.00 | 0.00 | 10 | 1018.6 |
| 20260507200542 | 20 | 311 | 4.8 | 24.1 | 0.00 | 0.00 | 0.00 | 9 | 1018.7 |
| 20260507200054 | 20 | 310 | 12.9 | 24.1 | 0.00 | 0.00 | 0.00 | 10 | 1018.8 |
| 20260507195541 | 20 | 344 | 6.4 | 22.5 | 0.00 | 0.00 | 0.00 | 9 | 1018.8 |
| 20260507195044 | 20 | 309 | 8.0 | 22.5 | 0.00 | 0.00 | 0.00 | 10 | 1018.8 |
| 20260507194549 | 20 | 317 | 8.0 | 22.5 | 0.00 | 0.00 | 0.00 | 11 | 1018.9 |
| 20260507194044 | 19 | 283 | 14.5 | 22.5 | 0.00 | 0.00 | 0.00 | 10 | 1018.9 |
| 20260507193542 | 18 | 311 | 9.7 | 24.1 | 0.00 | 0.00 | 0.00 | 10 | 1019.1 |
| 20260507193052 | 18 | 11 | 11.3 | 24.1 | 0.00 | 0.00 | 0.00 | 9 | 1019.2 |
| 20260507192545 | 18 | 296 | 11.3 | 27.4 | 0.00 | 0.00 | 0.00 | 12 | 1019.2 |
| 20260507192042 | 18 | 311 | 12.9 | 27.4 | 0.00 | 0.00 | 0.00 | 14 | 1019.1 |
| 20260507191546 | 17 | 341 | 14.5 | 27.4 | 0.00 | 0.00 | 0.00 | 13 | 1019.2 |
| 20260507191045 | 17 | 275 | 16.1 | 30.6 | 0.00 | 0.00 | 0.00 | 13 | 1019.3 |
| 20260507190542 | 17 | 316 | 19.3 | 30.6 | 0.00 | 0.00 | 0.00 | 16 | 1019.3 |
| 20260507190053 | 17 | 13 | 12.9 | 27.4 | 0.00 | 0.00 | 0.00 | 16 | 1019.3 |
| 20260507185542 | 16 | 9 | 16.1 | 30.6 | 0.00 | 0.00 | 0.00 | 16 | 1019.3 |
| 20260507185041 | 16 | 293 | 16.1 | 30.6 | 0.00 | 0.00 | 0.00 | 18 | 1019.4 |
| 20260507184549 | 16 | 319 | 11.3 | 29.0 | 0.00 | 0.00 | 0.00 | 18 | 1019.5 |
| 20260507184043 | 16 | 317 | 17.7 | 29.0 | 0.00 | 0.00 | 0.00 | 16 | 1019.5 |
| 20260507183543 | 16 | 329 | 17.7 | 29.0 | 0.00 | 0.00 | 0.00 | 18 | 1019.6 |
| 20260507183048 | 15 | 9 | 12.9 | 25.7 | 0.00 | 0.00 | 0.00 | 22 | 1019.5 |
| 20260507182542 | 15 | 342 | 17.7 | 25.7 | 0.00 | 0.00 | 0.00 | 20 | 1019.7 |
| 20260507182044 | 15 | 352 | 16.1 | 27.4 | 0.00 | 0.00 | 0.00 | 21 | 1019.7 |
| 20260507181550 | 15 | 9 | 17.7 | 29.0 | 0.00 | 0.00 | 0.00 | 22 | 1019.8 |
| 20260507181045 | 15 | 336 | 16.1 | 33.8 | 0.00 | 0.00 | 0.00 | 21 | 1020.0 |
| 20260507180543 | 15 | 346 | 19.3 | 33.8 | 0.00 | 0.00 | 0.00 | 24 | 1020.0 |
| 20260507180050 | 14 | 349 | 14.5 | 27.4 | 0.00 | 0.00 | 0.00 | 25 | 1020.1 |
| 20260507175542 | 14 | 355 | 14.5 | 30.6 | 0.00 | 0.00 | 0.00 | 25 | 1020.2 |
| 20260507175042 | 13 | 300 | 20.9 | 30.6 | 0.00 | 0.00 | 0.00 | 26 | 1020.2 |
| 20260507174555 | 13 | 338 | 16.1 | 30.6 | 0.00 | 0.00 | 0.00 | 27 | 1020.4 |
| 20260507174041 | 13 | 315 | 17.7 | 29.0 | 0.00 | 0.00 | 0.00 | 29 | 1020.4 |
| 20260507173543 | 13 | 332 | 16.1 | 30.6 | 0.00 | 0.00 | 0.00 | 31 | 1020.4 |
| 20260507173054 | 13 | 331 | 16.1 | 30.6 | 0.00 | 0.00 | 0.00 | 30 | 1020.5 |
| 20260507172546 | 12 | 341 | 16.1 | 33.8 | 0.00 | 0.00 | 0.00 | 30 | 1020.5 |
| 20260507172041 | 12 | 350 | 19.3 | 33.8 | 0.00 | 0.00 | 0.00 | 31 | 1020.6 |
| 20260507171600 | 12 | 352 | 20.9 | 33.8 | 0.00 | 0.00 | 0.00 | 32 | 1020.6 |
| 20260507171042 | 12 | 355 | 17.7 | 33.8 | 0.00 | 0.00 | 0.00 | 33 | 1020.7 |
| 20260507170544 | 12 | 321 | 19.3 | 35.4 | 0.00 | 0.00 | 0.00 | 35 | 1020.6 |
| 20260507170050 | 11 | 360 | 20.9 | 38.6 | 0.00 | 0.00 | 0.00 | 34 | 1020.7 |
| 20260507165542 | 11 | 336 | 22.5 | 38.6 | 0.00 | 0.00 | 0.00 | 36 | 1020.6 |
| 20260507165042 | 11 | 340 | 20.9 | 33.8 | 0.00 | 0.00 | 0.00 | 37 | 1020.7 |
| 20260507164551 | 10 | 344 | 17.7 | 33.8 | 0.00 | 0.00 | 0.00 | 42 | 1020.7 |
| 20260507164043 | 10 | 298 | 19.3 | 33.8 | 0.00 | 0.00 | 0.00 | 44 | 1020.9 |
| 20260507163542 | 10 | 355 | 20.9 | 33.8 | 0.00 | 0.00 | 0.00 | 47 | 1020.9 |
| 20260507163047 | 9 | 344 | 17.7 | 30.6 | 0.00 | 0.00 | 0.00 | 48 | 1021.0 |
| 20260507162542 | 9 | 28 | 19.3 | 29.0 | 0.00 | 0.00 | 0.00 | 50 | 1021.0 |
| 20260507162044 | 8 | 355 | 17.7 | 29.0 | 0.00 | 0.00 | 0.00 | 51 | 1021.0 |
| 20260507161556 | 8 | 5 | 19.3 | 32.2 | 0.00 | 0.00 | 0.00 | 52 | 1021.1 |
| 20260507161042 | 7 | 352 | 19.3 | 32.2 | 0.00 | 0.00 | 0.00 | 53 | 1021.1 |
| 20260507160543 | 7 | 10 | 20.9 | 32.2 | 0.00 | 0.00 | 0.00 | 54 | 1021.1 |
| 20260507160052 | 7 | 328 | 20.9 | 32.2 | 0.00 | 0.00 | 0.00 | 54 | 1021.1 |
| 20260507155541 | 7 | 352 | 20.9 | 33.8 | 0.00 | 0.00 | 0.00 | 55 | 1021.4 |
| 20260507155042 | 6 | 360 | 22.5 | 33.8 | 0.00 | 0.00 | 0.00 | 55 | 1021.4 |
| 20260507154552 | 6 | 23 | 20.9 | 37.0 | 0.00 | 0.00 | 0.00 | 55 | 1021.5 |
| 20260507154042 | 6 | 329 | 22.5 | 37.0 | 0.00 | 0.00 | 0.00 | 56 | 1021.6 |
| 20260507153542 | 6 | 38 | 20.9 | 37.0 | 0.00 | 0.00 | 0.00 | 55 | 1021.6 |
| 20260507153107 | 6 | 355 | 19.3 | 29.0 | 0.00 | 0.00 | 0.00 | 58 | 1021.7 |
| 20260507152542 | 6 | 5 | 17.7 | 29.0 | 0.00 | 0.00 | 0.00 | 59 | 1021.8 |
| 20260507152043 | 6 | 352 | 17.7 | 27.4 | 0.00 | 0.00 | 0.00 | 60 | 1021.8 |
| 20260507151553 | 6 | 321 | 16.1 | 27.4 | 0.00 | 0.00 | 0.00 | 62 | 1021.8 |
| 20260507151041 | 5 | 340 | 16.1 | 25.7 | 0.00 | 0.00 | 0.00 | 63 | 1021.7 |
| 20260507150543 | 5 | 331 | 14.5 | 29.0 | 0.00 | 0.00 | 0.00 | 64 | 1021.7 |
| 20260507150053 | 5 | 327 | 17.7 | 29.0 | 0.00 | 0.00 | 0.00 | 65 | 1021.7 |
| 20260507145542 | 5 | 300 | 14.5 | 27.4 | 0.00 | 0.00 | 0.00 | 65 | 1021.7 |
| 20260507145042 | 5 | 313 | 14.5 | 22.5 | 0.00 | 0.00 | 0.00 | 67 | 1021.7 |
| 20260507144555 | 4 | 348 | 12.9 | 20.9 | 0.00 | 0.00 | 0.00 | 68 | 1021.7 |
| 20260507144042 | 4 | 351 | 12.9 | 20.9 | 0.00 | 0.00 | 0.00 | 69 | 1021.8 |
| 20260507143543 | 4 | 327 | 12.9 | 20.9 | 0.00 | 0.00 | 0.00 | 70 | 1021.9 |
| 20260507143053 | 4 | 336 | 12.9 | 20.9 | 0.00 | 0.00 | 0.00 | 72 | 1022.0 |
| 20260507142542 | 4 | 329 | 9.7 | 20.9 | 0.00 | 0.00 | 0.00 | 72 | 1022.0 |
| 20260507142042 | 3 | 303 | 14.5 | 20.9 | 0.00 | 0.00 | 0.00 | 72 | 1022.0 |
| 20260507141548 | 3 | 333 | 6.4 | 17.7 | 0.00 | 0.00 | 0.00 | 75 | 1022.1 |
| 20260507141042 | 3 | 5 | 8.0 | 17.7 | 0.00 | 0.00 | 0.00 | 76 | 1022.2 |
| 20260507140542 | 3 | 328 | 8.0 | 17.7 | 0.00 | 0.00 | 0.00 | 77 | 1022.3 |
| 20260507140049 | 3 | 315 | 6.4 | 9.7 | 0.00 | 0.00 | 0.00 | 78 | 1022.3 |
| 20260507135544 | 2 | 328 | 4.8 | 12.9 | 0.00 | 0.00 | 0.00 | 78 | 1022.3 |
| 20260507135045 | 2 | 355 | 4.8 | 12.9 | 0.00 | 0.00 | 0.00 | 79 | 1022.4 |
| 20260507134558 | 2 | 355 | 8.0 | 12.9 | 0.00 | 0.00 | 0.00 | 80 | 1022.3 |
| 20260507134041 | 2 | 360 | 4.8 | 9.7 | 0.00 | 0.00 | 0.00 | 81 | 1022.2 |
| 20260507133542 | 2 | 360 | 4.8 | 9.7 | 0.00 | 0.00 | 0.00 | 82 | 1022.1 |
| 20260507133052 | 1 | 344 | 4.8 | 8.0 | 0.00 | 0.00 | 0.00 | 83 | 1022.1 |
| 20260507132542 | 1 | 360 | 4.8 | 8.0 | 0.00 | 0.00 | 0.00 | 84 | 1022.1 |
| 20260507132041 | 1 | 360 | 4.8 | 8.0 | 0.00 | 0.00 | 0.00 | 84 | 1022.1 |
| 20260507131546 | 1 | 360 | 3.2 | 9.7 | 0.00 | 0.00 | 0.00 | 85 | 1022.1 |
| 20260507131042 | 1 | 360 | 3.2 | 9.7 | 0.00 | 0.00 | 0.00 | 86 | 1022.1 |
| 20260507130544 | 1 | 360 | 4.8 | 9.7 | 0.00 | 0.00 | 0.00 | 87 | 1022.1 |
| 20260507130100 | 0 | 355 | 3.2 | 6.4 | 0.00 | 0.00 | 0.00 | 87 | 1022.2 |
| 20260507125542 | 0 | 355 | 3.2 | 9.7 | 0.00 | 0.00 | 0.00 | 87 | 1022.1 |
| 20260507125041 | 0 | 355 | 3.2 | 9.7 | 0.00 | 0.00 | 0.00 | 88 | 1022.1 |
| 20260507124607 | 0 | 355 | 4.8 | 8.0 | 0.00 | 0.00 | 0.00 | 88 | 1022.2 |
| 20260507124042 | 0 | 5 | 4.8 | 8.0 | 0.00 | 0.00 | 0.00 | 89 | 1022.2 |
| 20260507123543 | 0 | 5 | 4.8 | 11.3 | 0.00 | 0.00 | 0.00 | 90 | 1022.1 |
| 20260507123103 | 0 | 5 | 4.8 | 11.3 | 0.00 | 0.00 | 0.00 | 90 | 1022.0 |
| 20260507122542 | 0 | 24 | 4.8 | 8.0 | 0.00 | 0.00 | 0.00 | 90 | 1022.1 |
| 20260507122042 | -1 | 22 | 4.8 | 8.0 | 0.00 | 0.00 | 0.00 | 90 | 1022.0 |
| 20260507121558 | -1 | 45 | 3.2 | 6.4 | 0.00 | 0.00 | 0.00 | 89 | 1022.2 |
| 20260507121045 | -1 | 157 | 3.2 | 6.4 | 0.00 | 0.00 | 0.00 | 89 | 1022.2 |
| 20260507120545 | -1 | 128 | 1.6 | 4.8 | 0.00 | 0.00 | 0.00 | 89 | 1022.1 |
| 20260507120050 | -1 | 128 | 1.6 | 4.8 | 0.00 | 0.00 | 0.00 | 89 | 1022.2 |
| 20260507115542 | -1 | 128 | 1.6 | 4.8 | 0.00 | 0.00 | 0.00 | 88 | 1022.1 |
| 20260507115042 | -1 | 128 | 1.6 | 4.8 | 0.00 | 0.00 | 0.00 | 88 | 1022.0 |
| 20260507114550 | -1 | 128 | 3.2 | 4.8 | 0.00 | 0.00 | 0.00 | 87 | 1022.1 |
| 20260507114042 | -1 | 128 | 3.2 | 4.8 | 0.00 | 0.00 | 0.00 | 87 | 1022.2 |
| 20260507113545 | -1 | 128 | 0.0 | 3.2 | 0.00 | 0.00 | 0.00 | 85 | 1022.2 |
| 20260507113047 | -1 | 128 | 1.6 | 3.2 | 0.00 | 0.00 | 0.00 | 85 | 1022.1 |
| 20260507112545 | -1 | 0 | 0.0 | 1.6 | 0.00 | 0.00 | 0.00 | 85 | 1022.1 |
| 20260507112042 | -1 | 128 | 0.0 | 4.8 | 0.00 | 0.00 | 0.00 | 84 | 1022.0 |
| 20260507111547 | -1 | 0 | 0.0 | 4.8 | 0.00 | 0.00 | 0.00 | 84 | 1022.0 |
| 20260507111041 | -1 | 128 | 3.2 | 4.8 | 0.00 | 0.00 | 0.00 | 83 | 1021.9 |
| 20260507110541 | -1 | 128 | 0.0 | 3.2 | 0.00 | 0.00 | 0.00 | 83 | 1021.9 |
| 20260507110052 | -1 | 0 | 0.0 | 3.2 | 0.00 | 0.00 | 0.00 | 83 | 1021.9 |
| 20260507105542 | -1 | 0 | 0.0 | 3.2 | 0.00 | 0.00 | 0.00 | 83 | 1021.9 |
| 20260507105044 | -1 | 128 | 0.0 | 4.8 | 0.00 | 0.00 | 0.00 | 83 | 1021.9 |
| 20260507104553 | -1 | 128 | 0.0 | 4.8 | 0.00 | 0.00 | 0.00 | 83 | 1022.0 |
| 20260507104041 | -1 | 128 | 1.6 | 4.8 | 0.00 | 0.00 | 0.00 | 83 | 1022.0 |
| 20260507103544 | 0 | 128 | 0.0 | 3.2 | 0.00 | 0.00 | 0.00 | 84 | 1022.0 |
| 20260507103048 | 0 | 0 | 0.0 | 3.2 | 0.00 | 0.00 | 0.00 | 84 | 1022.0 |
| 20260507102542 | 0 | 0 | 0.0 | 3.2 | 0.00 | 0.00 | 0.00 | 84 | 1022.0 |
| 20260507102042 | 0 | 0 | 0.0 | 3.2 | 0.00 | 0.00 | 0.00 | 84 | 1022.0 |
| 20260507101557 | 0 | 128 | 0.0 | 4.8 | 0.00 | 0.00 | 0.00 | 83 | 1022.0 |
| 20260507101041 | 0 | 0 | 0.0 | 4.8 | 0.00 | 0.00 | 0.00 | 83 | 1022.0 |
| 20260507100541 | 0 | 128 | 3.2 | 4.8 | 0.00 | 0.00 | 0.00 | 83 | 1022.0 |
| 20260507095543 | 0 | 128 | 1.6 | 3.2 | 0.00 | 0.00 | 0.00 | 82 | 1022.0 |
| 20260507095042 | 0 | 128 | 0.0 | 4.8 | 0.00 | 0.00 | 0.00 | 82 | 1021.9 |
| 20260507094549 | 0 | 128 | 1.6 | 4.8 | 0.00 | 0.00 | 0.00 | 82 | 1022.0 |
| 20260507094042 | 0 | 128 | 0.0 | 4.8 | 0.00 | 0.00 | 0.00 | 82 | 1021.9 |
| 20260507093542 | 0 | 128 | 1.6 | 4.8 | 0.00 | 0.00 | 0.00 | 82 | 1022.0 |
| 20260507093047 | 0 | 128 | 1.6 | 3.2 | 0.00 | 0.00 | 0.00 | 82 | 1022.1 |
| 20260507092542 | 0 | 128 | 0.0 | 3.2 | 0.00 | 0.00 | 0.00 | 81 | 1022.0 |
| 20260507092042 | 0 | 128 | 0.0 | 3.2 | 0.00 | 0.00 | 0.00 | 80 | 1022.0 |
| 20260507091547 | 0 | 0 | 1.6 | 3.2 | 0.00 | 0.00 | 0.00 | 81 | 1022.0 |
| 20260507091042 | 0 | 128 | 0.0 | 6.4 | 0.00 | 0.00 | 0.00 | 81 | 1022.0 |
| 20260507090542 | 0 | 0 | 0.0 | 6.4 | 0.00 | 0.00 | 0.00 | 81 | 1022.0 |
| 20260507090049 | 0 | 128 | 3.2 | 6.4 | 0.00 | 0.00 | 0.00 | 80 | 1022.0 |
| 20260507085542 | 0 | 128 | 1.6 | 3.2 | 0.00 | 0.03 | 0.00 | 80 | 1021.9 |
| 20260507085042 | 1 | 0 | 0.0 | 3.2 | 0.00 | 0.03 | 0.00 | 79 | 1022.0 |
| 20260507084549 | 1 | 0 | 0.0 | 4.8 | 0.00 | 0.03 | 0.00 | 79 | 1022.0 |
| 20260507084042 | 1 | 128 | 0.0 | 4.8 | 0.00 | 0.03 | 0.00 | 79 | 1021.8 |
| 20260507083542 | 1 | 128 | 1.6 | 6.4 | 0.00 | 0.03 | 0.00 | 79 | 1021.7 |
| 20260507083105 | 1 | 128 | 1.6 | 6.4 | 0.00 | 0.03 | 0.00 | 80 | 1021.7 |
| 20260507082542 | 1 | 128 | 3.2 | 6.4 | 0.00 | 0.03 | 0.00 | 79 | 1021.7 |
| 20260507082045 | 1 | 128 | 3.2 | 6.4 | 0.00 | 0.03 | 0.00 | 78 | 1021.7 |
| 20260507081557 | 1 | 128 | 1.6 | 6.4 | 0.00 | 0.03 | 0.00 | 78 | 1021.7 |
| 20260507081042 | 1 | 128 | 3.2 | 6.4 | 0.00 | 0.03 | 0.00 | 78 | 1021.7 |
| 20260507080542 | 1 | 128 | 4.8 | 6.4 | 0.00 | 0.03 | 0.00 | 77 | 1021.7 |
| 20260507080049 | 2 | 128 | 1.6 | 8.0 | 0.00 | 0.03 | 0.00 | 77 | 1021.6 |
| 20260507075544 | 2 | 128 | 1.6 | 8.0 | 0.00 | 0.03 | 0.00 | 77 | 1021.6 |
| 20260507075042 | 2 | 121 | 3.2 | 8.0 | 0.00 | 0.03 | 0.00 | 77 | 1021.5 |
| 20260507074549 | 2 | 27 | 1.6 | 8.0 | 0.00 | 0.03 | 0.00 | 77 | 1021.5 |
| 20260507074041 | 2 | 14 | 4.8 | 9.7 | 0.00 | 0.03 | 0.00 | 77 | 1021.4 |
| 20260507073542 | 2 | 5 | 4.8 | 14.5 | 0.00 | 0.03 | 0.00 | 76 | 1021.3 |
| 20260507073059 | 2 | 344 | 6.4 | 14.5 | 0.00 | 0.03 | 0.00 | 76 | 1021.3 |
| 20260507072542 | 2 | 355 | 9.7 | 16.1 | 0.00 | 0.03 | 0.00 | 76 | 1021.2 |
| 20260507072043 | 2 | 338 | 8.0 | 16.1 | 0.00 | 0.03 | 0.00 | 75 | 1021.2 |
| 20260507071550 | 2 | 313 | 8.0 | 14.5 | 0.00 | 0.03 | 0.00 | 75 | 1021.1 |
| 20260507071042 | 2 | 360 | 8.0 | 14.5 | 0.00 | 0.03 | 0.00 | 75 | 1021.2 |
| 20260507070541 | 2 | 15 | 8.0 | 12.9 | 0.00 | 0.03 | 0.00 | 75 | 1021.1 |
| 20260507070053 | 2 | 25 | 8.0 | 12.9 | 0.00 | 0.03 | 0.00 | 75 | 1021.2 |
| 20260507065541 | 2 | 349 | 6.4 | 12.9 | 0.00 | 0.03 | 0.00 | 75 | 1021.2 |
| 20260507065042 | 3 | 355 | 6.4 | 9.7 | 0.00 | 0.03 | 0.00 | 74 | 1021.2 |
| 20260507064548 | 3 | 360 | 6.4 | 9.7 | 0.00 | 0.03 | 0.00 | 74 | 1021.1 |
| 20260507064045 | 3 | 355 | 4.8 | 12.9 | 0.00 | 0.03 | 0.00 | 73 | 1021.1 |
| 20260507063542 | 3 | 355 | 6.4 | 12.9 | 0.00 | 0.03 | 0.00 | 73 | 1021.0 |
| 20260507063050 | 3 | 360 | 6.4 | 16.1 | 0.00 | 0.03 | 0.00 | 72 | 1020.9 |
| 20260507062542 | 3 | 28 | 6.4 | 16.1 | 0.00 | 0.03 | 0.00 | 72 | 1020.9 |
| 20260507062042 | 3 | 32 | 8.0 | 16.1 | 0.00 | 0.03 | 0.00 | 72 | 1020.9 |
| 20260507061545 | 3 | 26 | 6.4 | 14.5 | 0.00 | 0.03 | 0.00 | 72 | 1020.9 |
| 20260507061041 | 3 | 28 | 8.0 | 14.5 | 0.00 | 0.03 | 0.00 | 72 | 1020.8 |
| 20260507060541 | 3 | 21 | 8.0 | 14.5 | 0.00 | 0.03 | 0.00 | 72 | 1020.8 |
| 20260507060049 | 3 | 39 | 8.0 | 14.5 | 0.00 | 0.03 | 0.00 | 72 | 1020.7 |
| 20260507055542 | 3 | 34 | 9.7 | 14.5 | 0.00 | 0.03 | 0.03 | 73 | 1020.7 |
| 20260507055042 | 3 | 19 | 9.7 | 14.5 | 0.00 | 0.03 | 0.03 | 73 | 1020.7 |
| 20260507054548 | 3 | 17 | 8.0 | 14.5 | 0.00 | 0.03 | 0.03 | 73 | 1020.6 |
| 20260507054041 | 3 | 9 | 8.0 | 14.5 | 0.00 | 0.03 | 0.03 | 72 | 1020.5 |
| 20260507053542 | 3 | 5 | 8.0 | 14.5 | 0.00 | 0.03 | 0.03 | 72 | 1020.6 |
| 20260507053049 | 3 | 28 | 8.0 | 17.7 | 0.00 | 0.03 | 0.03 | 72 | 1020.6 |
| 20260507052542 | 3 | 5 | 8.0 | 17.7 | 0.00 | 0.03 | 0.03 | 71 | 1020.5 |
| 20260507052041 | 3 | 5 | 9.7 | 16.1 | 0.00 | 0.03 | 0.03 | 71 | 1020.5 |
| 20260507051554 | 3 | 5 | 11.3 | 16.1 | 0.00 | 0.03 | 0.03 | 70 | 1020.5 |
| 20260507051042 | 3 | 26 | 9.7 | 16.1 | 0.00 | 0.03 | 0.03 | 68 | 1020.5 |
| 20260507050546 | 3 | 13 | 9.7 | 14.5 | 0.00 | 0.03 | 0.03 | 67 | 1020.4 |
| 20260507050050 | 4 | 5 | 4.8 | 9.7 | 0.00 | 0.03 | 0.03 | 66 | 1020.4 |
| 20260507045542 | 4 | 343 | 4.8 | 9.7 | 0.00 | 0.05 | 0.03 | 66 | 1020.4 |
| 20260507045042 | 4 | 331 | 4.8 | 8.0 | 0.00 | 0.05 | 0.03 | 65 | 1020.4 |
| 20260507044550 | 5 | 5 | 3.2 | 6.4 | 0.00 | 0.05 | 0.03 | 64 | 1020.2 |
| 20260507044041 | 5 | 346 | 4.8 | 8.0 | 0.00 | 0.05 | 0.03 | 64 | 1020.2 |
| 20260507043542 | 5 | 16 | 4.8 | 8.0 | 0.00 | 0.05 | 0.03 | 64 | 1020.2 |
| 20260507043049 | 5 | 5 | 4.8 | 8.0 | 0.00 | 0.05 | 0.03 | 62 | 1020.1 |
| 20260507042542 | 5 | 338 | 4.8 | 8.0 | 0.00 | 0.05 | 0.03 | 61 | 1020.0 |
| 20260507042041 | 5 | 312 | 4.8 | 9.7 | 0.00 | 0.05 | 0.03 | 60 | 1019.9 |
| 20260507041549 | 6 | 329 | 3.2 | 12.9 | 0.00 | 0.05 | 0.03 | 59 | 1019.9 |
| 20260507041045 | 6 | 324 | 6.4 | 12.9 | 0.00 | 0.05 | 0.03 | 57 | 1019.8 |
| 20260507040542 | 6 | 323 | 6.4 | 9.7 | 0.00 | 0.05 | 0.03 | 55 | 1019.7 |
| 20260507040051 | 6 | 307 | 4.8 | 8.0 | 0.00 | 0.05 | 0.03 | 53 | 1019.6 |
| 20260507035542 | 6 | 344 | 3.2 | 12.9 | 0.00 | 0.10 | 0.03 | 52 | 1019.5 |
| 20260507035042 | 6 | 344 | 4.8 | 12.9 | 0.00 | 0.10 | 0.03 | 52 | 1019.5 |
| 20260507034547 | 7 | 360 | 4.8 | 9.7 | 0.00 | 0.10 | 0.03 | 51 | 1019.4 |
| 20260507034042 | 7 | 324 | 4.8 | 14.5 | 0.00 | 0.10 | 0.03 | 50 | 1019.3 |
| 20260507033542 | 7 | 334 | 4.8 | 14.5 | 0.00 | 0.10 | 0.03 | 49 | 1019.3 |
| 20260507033055 | 7 | 288 | 4.8 | 8.0 | 0.00 | 0.10 | 0.03 | 49 | 1019.3 |
| 20260507032543 | 7 | 313 | 4.8 | 8.0 | 0.00 | 0.10 | 0.03 | 48 | 1019.1 |
| 20260507032041 | 7 | 319 | 4.8 | 17.7 | 0.00 | 0.10 | 0.03 | 47 | 1019.1 |
| 20260507031556 | 7 | 319 | 4.8 | 17.7 | 0.00 | 0.10 | 0.03 | 47 | 1018.9 |
| 20260507031044 | 8 | 311 | 1.6 | 8.0 | 0.00 | 0.10 | 0.03 | 46 | 1018.9 |
| 20260507030541 | 8 | 236 | 1.6 | 8.0 | 0.00 | 0.10 | 0.03 | 45 | 1018.7 |
| 20260507030053 | 8 | 246 | 1.6 | 6.4 | 0.00 | 0.10 | 0.03 | 45 | 1018.6 |
| 20260507025546 | 8 | 234 | 1.6 | 6.4 | 0.00 | 0.23 | 0.03 | 45 | 1018.4 |
| 20260507025047 | 8 | 219 | 1.6 | 6.4 | 0.00 | 0.23 | 0.03 | 44 | 1018.3 |
| 20260507024551 | 8 | 0 | 1.6 | 6.4 | 0.00 | 0.23 | 0.03 | 44 | 1018.2 |
| 20260507024045 | 8 | 222 | 1.6 | 6.4 | 0.00 | 0.23 | 0.03 | 44 | 1018.0 |
| 20260507023549 | 9 | 229 | 3.2 | 6.4 | 0.00 | 0.23 | 0.03 | 43 | 1018.0 |
| 20260507023046 | 9 | 236 | 1.6 | 9.7 | 0.00 | 0.23 | 0.03 | 43 | 1017.9 |
| 20260507022545 | 9 | 240 | 3.2 | 11.3 | 0.00 | 0.23 | 0.03 | 43 | 1017.7 |
| 20260507022042 | 10 | 258 | 4.8 | 11.3 | 0.00 | 0.23 | 0.03 | 42 | 1017.7 |
| 20260507021549 | 10 | 286 | 4.8 | 12.9 | 0.00 | 0.23 | 0.03 | 42 | 1017.7 |
| 20260507021041 | 10 | 271 | 4.8 | 12.9 | 0.00 | 0.23 | 0.03 | 41 | 1017.6 |
| 20260507020542 | 10 | 267 | 4.8 | 16.1 | 0.00 | 0.23 | 0.03 | 41 | 1017.5 |
| 20260507020104 | 10 | 250 | 6.4 | 16.1 | 0.00 | 0.23 | 0.03 | 40 | 1017.6 |
| 20260507015541 | 11 | 282 | 6.4 | 22.5 | 0.00 | 0.23 | 0.03 | 39 | 1017.5 |
| 20260507015041 | 11 | 267 | 11.3 | 22.5 | 0.00 | 0.23 | 0.03 | 38 | 1017.3 |